FW8621 Weather Reports


time (UTC)temp
C
wind
direction
speed
KPH
gust
KPH
rain 1hr
cm
rain 24hr
cm
rain mn
cm
humidity
%
barometer
mb
20260507103113 22 0 0.0 3.2 0.00 0.00 0.00 72 1016.5
20260507101559 21 0 0.0 1.6 0.00 0.00 0.00 74 1016.6
20260507100058 21 0 0.0 1.6 0.00 0.00 0.00 73 1016.6
20260507094601 21 0 0.0 1.6 0.00 0.00 0.00 72 1016.8
20260507093101 21 0 0.0 3.2 0.00 0.00 0.00 66 1016.7
20260507091606 21 0 0.0 1.6 0.00 0.00 0.00 67 1016.6
20260507090100 20 142 0.0 4.8 0.00 0.00 0.00 67 1016.7
20260507084601 21 262 0.0 3.2 0.00 0.00 0.00 66 1016.7
20260507083100 20 183 0.0 1.6 0.00 0.00 0.00 71 1016.5
20260507081559 19 0 0.0 3.2 0.00 0.00 0.00 74 1016.3
20260507080059 18 0 0.0 0.0 0.00 0.00 0.00 77 1016.4
20260507074558 18 0 0.0 0.0 0.00 0.00 0.00 80 1016.3
20260507073103 17 0 0.0 1.6 0.00 0.00 0.00 82 1016.5
20260507071558 17 0 0.0 0.0 0.00 0.00 0.00 84 1016.5
20260507064557 17 0 0.0 0.0 0.00 0.00 0.00 87 1016.2
20260507063058 17 0 0.0 0.0 0.00 0.00 0.00 89 1016.3
20260507061603 16 0 0.0 0.0 0.00 0.00 0.00 90 1016.3
20260507060104 16 0 0.0 0.0 0.00 0.00 0.00 90 1016.3
20260507054609 16 0 0.0 0.0 0.00 0.00 0.00 91 1016.4
20260507053103 16 0 0.0 0.0 0.00 0.00 0.00 91 1016.2
20260507051601 16 0 0.0 0.0 0.00 0.00 0.00 91 1016.0
20260507050106 15 0 0.0 0.0 0.00 0.00 0.00 91 1015.8
20260507044607 15 0 0.0 0.0 0.00 0.00 0.00 91 1015.6
20260507043106 15 0 0.0 0.0 0.00 0.00 0.00 91 1015.5
20260507041608 15 0 0.0 0.0 0.00 0.00 0.00 91 1015.6
20260507040103 16 0 0.0 0.0 0.00 0.00 0.00 91 1015.3
20260507034613 16 0 0.0 0.0 0.00 0.00 0.00 91 1015.3
20260507033107 16 0 0.0 0.0 0.00 0.00 0.00 91 1015.4
20260507031608 16 0 0.0 0.0 0.00 0.00 0.00 91 1015.5
20260507030106 16 0 0.0 0.0 0.00 0.00 0.00 90 1015.2
20260507024611 16 0 0.0 0.0 0.00 0.00 0.00 89 1015.0
20260507023059 16 0 0.0 0.0 0.00 0.00 0.00 90 1015.0
20260507021558 16 0 0.0 0.0 0.00 0.00 0.00 90 1015.0
20260507014603 16 0 0.0 0.0 0.00 0.00 0.00 89 1014.7
20260507013103 16 0 0.0 0.0 0.00 0.00 0.00 89 1014.5
20260507011559 16 0 0.0 0.0 0.00 0.00 0.00 89 1014.2
20260507010100 16 0 0.0 0.0 0.00 0.00 0.00 88 1014.2
20260507004600 16 0 0.0 0.0 0.00 0.00 0.00 88 1014.3
20260507003101 16 0 0.0 0.0 0.00 0.00 0.00 88 1014.3
20260507001558 16 0 0.0 0.0 0.00 0.00 0.00 88 1014.6
20260507000101 16 0 0.0 0.0 0.00 0.00 0.00 88 1014.6
20260506234603 16 0 0.0 0.0 0.00 0.00 0.00 88 1014.8
20260506233102 16 0 0.0 0.0 0.00 0.00 0.00 87 1015.0
20260506231557 16 0 0.0 0.0 0.00 0.00 0.00 87 1015.0
20260506230057 16 0 0.0 0.0 0.00 0.00 0.00 87 1015.1
20260506224607 16 0 0.0 0.0 0.00 0.00 0.00 87 1015.1
20260506223057 16 0 0.0 0.0 0.00 0.00 0.00 87 1015.2
20260506221601 16 0 0.0 0.0 0.00 0.00 0.00 87 1015.1
20260506214610 17 0 0.0 0.0 0.00 0.00 0.00 86 1015.0
20260506213057 17 0 0.0 0.0 0.00 0.00 0.00 86 1014.9
20260506211559 17 0 0.0 0.0 0.00 0.00 0.00 86 1014.9
20260506210100 17 0 0.0 0.0 0.00 0.00 0.00 86 1015.0
20260506204621 17 0 0.0 0.0 0.00 0.00 0.00 86 1014.9
20260506203057 17 0 0.0 0.0 0.00 0.00 0.00 85 1015.0
20260506201557 17 0 0.0 0.0 0.00 0.00 0.00 85 1015.1
20260506200057 17 0 0.0 0.0 0.00 0.00 0.00 84 1015.0
20260506194606 17 0 0.0 0.0 0.00 0.00 0.00 84 1014.8
20260506193102 17 0 0.0 0.0 0.00 0.00 0.00 83 1014.9
20260506191600 17 0 0.0 0.0 0.00 0.00 0.00 83 1014.5
20260506190101 17 0 0.0 1.6 0.00 0.00 0.00 82 1014.3
20260506184608 18 0 0.0 0.0 0.00 0.00 0.00 82 1014.3
20260506183110 18 0 0.0 0.0 0.00 0.00 0.00 82 1014.2
20260506181606 18 0 0.0 1.6 0.00 0.00 0.00 80 1014.1
20260506174559 18 139 0.0 3.2 0.00 0.00 0.00 82 1013.9
20260506173101 18 136 0.0 3.2 0.00 0.00 0.00 81 1013.8
20260506171605 18 128 0.0 4.8 0.00 0.00 0.00 78 1013.8
20260506170107 18 134 3.2 6.4 0.00 0.00 0.00 76 1013.8
20260506164604 19 0 1.6 4.8 0.00 0.00 0.00 75 1013.7
20260506163106 19 0 0.0 4.8 0.00 0.00 0.00 74 1013.8
20260506161607 19 0 0.0 4.8 0.00 0.00 0.00 75 1014.0
20260506160059 19 0 1.6 8.0 0.00 0.00 0.00 76 1014.0
20260506154614 18 143 1.6 6.4 0.00 0.00 0.00 79 1013.8
20260506153059 20 137 0.0 8.0 0.00 0.00 0.00 76 1013.8
20260506151559 20 232 1.6 6.4 0.00 0.00 0.00 80 1013.8
20260506150058 20 148 1.6 4.8 0.00 0.00 0.00 77 1013.5
20260506144605 20 0 0.0 9.7 0.00 0.00 0.00 78 1013.2
20260506143058 20 150 3.2 9.7 0.00 0.00 0.00 76 1013.3
20260506141603 21 139 1.6 6.4 0.00 0.00 0.00 69 1013.3
20260506140114 22 0 0.0 6.4 0.00 0.00 0.00 68 1013.5
20260506134558 22 131 1.6 6.4 0.00 0.00 0.00 63 1013.6
20260506133104 23 0 3.2 9.7 0.00 0.00 0.00 63 1013.8
20260506131601 22 0 1.6 8.0 0.00 0.00 0.00 67 1014.0
20260506130100 23 0 0.0 3.2 0.00 0.00 0.00 65 1014.0
20260506124558 22 145 0.0 6.4 0.00 0.00 0.00 67 1014.0
20260506123101 22 0 0.0 3.2 0.00 0.00 0.00 69 1014.1
20260506121559 22 117 0.0 6.4 0.00 0.00 0.00 70 1014.0
20260506120101 22 0 0.0 6.4 0.00 0.00 0.00 69 1013.8
20260506114609 22 138 0.0 1.6 0.00 0.00 0.00 68 1014.0
20260506113102 23 0 0.0 1.6 0.00 0.00 0.00 67 1014.0
20260506111607 22 0 0.0 1.6 0.00 0.00 0.00 68 1014.1
20260506110103 22 0 0.0 1.6 0.00 0.00 0.00 70 1014.3
20260506104601 21 0 0.0 6.4 0.00 0.00 0.00 75 1014.6